Temperature
4 3 3 3 4 5 4 4 4 5 5 5 5 5 6 6 6 6 6 7 7 8 9 10 10 10 10 10 10 10 10 10 10 10 10 10 10 10 10 10 10 10 10 10
3 3 4 4 4 4 4 4 4 4 5 5 4 5 5 5 5 6 6 6 7 8 8 9 9 9 9 10 10 10 10 10 10 10 10 9 10 10 10 10 10 10 10 10
4 4 4 4 4 4 4 4 4 4 4 4 4 5 5 5 5 6 6 6 7 7 8 9 9 9 9 9 9 9 9 9 9 9 9 9 9 9 9 9 9 9 9 9
3 4 4 4 4 4 4 4 4 4 4 3 3 4 5 4 4 5 5 6 7 7 8 8 8 9 9 9 9 9 9 9 9 9 9 9 9 9 9 9 9 9 9 9
3 4 4 4 4 4 4 4 4 4 3 2 2 3 4 4 4 5 5 6 6 7 7 8 8 8 8 8 9 9 9 9 9 9 8 8 8 9 9 9 9 9 9 9
3 4 4 4 4 4 4 3 3 2 2 3 3 3 3 3 4 4 4 5 6 7 7 7 8 8 8 8 8 8 8 8 8 8 8 8 8 8 8 8 8 8 8 8
3 3 4 4 4 4 3 3 3 2 2 2 3 3 4 4 4 4 4 5 5 6 6 7 7 7 7 8 8 8 8 8 8 8 8 8 8 8 8 8 8 8 8 8
3 3 3 3 3 3 3 3 3 3 2 2 2 2 3 4 4 4 4 4 5 5 6 6 7 7 7 7 7 7 8 8 8 8 8 8 7 7 7 7 7 7 7 8
2 3 3 3 3 3 3 2 3 2 1 1 2 2 2 3 3 3 3 4 4 5 5 6 6 6 6 7 7 7 7 7 7 7 7 7 7 7 7 7 7 7 7 7
2 2 2 2 3 3 2 2 1 2 2 3 2 2 3 3 3 3 2 3 3 4 4 5 5 6 6 6 6 6 7 7 7 7 7 7 7 7 7 7 6 6 7 7
1 1 1 2 2 2 1 1 1 1 1 2 2 3 3 2 2 2 2 3 3 3 4 4 5 5 5 5 5 5 6 6 6 6 6 6 6 6 6 6 6 6 6 6
0 0 0 1 1 2 2 1 1 2 1 0 1 3 3 2 2 1 2 2 2 2 3 3 4 4 4 4 5 5 5 5 6 6 6 6 6 6 6 6 6 6 6 6
0 0 1 2 1 1 1 0 0 0 0 0 1 3 2 1 1 1 1 2 2 2 2 3 3 3 3 4 4 5 5 5 5 5 5 5 5 5 5 6 5 5 5 5
1 -1 1 2 2 1 0 0 -0 -0 0 0 1 2 2 1 1 1 1 1 1 1 2 2 2 2 3 3 3 4 4 4 4 4 5 5 5 5 5 5 5 5 5 5
-0 -1 -1 -1 -0 -0 0 0 -0 -0 -0 0 1 1 1 1 0 -0 0 0 0 1 1 1 1 2 2 2 3 3 3 4 4 4 4 4 4 4 4 4 4 4 4 4
-2 -2 -2 -1 -0 -0 -0 -0 -0 -0 -0 -0 -0 0 0 -0 -0 -1 -0 -0 -0 -0 0 0 1 1 1 2 2 2 3 3 3 3 3 3 4 4 4 4 4 4 4 4
-3 -2 -1 -1 -1 -0 0 -0 -0 -1 -1 -1 -0 0 -1 -1 -1 -1 -1 -1 -1 -1 -0 -0 0 0 1 1 1 2 2 2 2 3 3 3 3 3 3 3 3 3 3 3
-3 -3 -2 -2 -1 0 1 -1 -1 -1 -1 -2 -1 -1 -1 -2 -1 -1 -1 -1 -1 -1 -1 -1 -0 0 0 1 1 1 2 2 2 2 2 2 2 2 2 2 3 3 3 3
-4 -3 -3 -3 -2 -1 0 -1 -1 -1 -1 -2 -2 -2 -2 -2 -2 -2 -1 -1 -1 -1 -1 -1 -1 -0 0 0 0 1 1 1 1 2 2 2 2 2 2 2 2 2 2 2
-4 -4 -3 -3 -1 0 1 -1 -2 -1 -1 -1 -2 -3 -3 -3 -2 -2 -1 -1 -1 -1 -1 -1 -0 -0 0 0 -0 0 0 1 1 1 1 1 1 1 1 1 1 2 2 2
-3 -4 -3 -3 -2 -1 -1 -2 -1 -0 -0 -1 -2 -2 -3 -3 -3 -2 -2 -2 -2 -1 -1 -1 -1 -1 -0 -0 -0 -0 -0 0 0 0 1 1 1 1 1 1 1 1 1 1
-3 -3 -4 -4 -2 -1 -2 -2 -2 -1 -1 -2 -2 -2 -2 -2 -2 -2 -2 -2 -2 -2 -1 -1 -1 -1 -1 -1 -1 -1 -1 -0 -0 0 0 0 1 1 1 1 0 0 0 1
-4 -4 -4 -3 -2 -2 -2 -2 -2 -2 -2 -2 -2 -2 -2 -2 -3 -2 -2 -2 -2 -2 -2 -2 -2 -2 -1 -1 -1 -1 -1 -1 -1 -0 -0 -0 0 0 0 0 -0 -0 -0 0
-5 -5 -5 -5 -4 -3 -2 -2 -2 -2 -2 -2 -2 -2 -2 -2 -3 -3 -3 -3 -3 -2 -2 -2 -2 -2 -2 -2 -2 -2 -2 -1 -1 -1 -1 -1 -0 -1 -1 -1 -1 -1 -1 -1
-5 -6 -6 -5 -5 -3 -2 -2 -1 -2 -2 -2 -2 -2 -2 -3 -3 -3 -3 -3 -3 -3 -3 -2 -3 -2 -2 -2 -2 -2 -2 -2 -2 -1 -1 -1 -1 -1 -1 -1 -1 -1 -1 -1
-6 -6 -5 -4 -3 -4 -2 -1 -2 -2 -2 -2 -2 -2 -3 -3 -3 -3 -3 -3 -3 -3 -3 -3 -3 -3 -3 -2 -2 -2 -2 -2 -2 -2 -2 -2 -2 -2 -2 -2 -2 -2 -1 -1
Wind_Speed
2 2 3 6 6 4 3 4 9 8 5 5 10 15 16 10 8 9 9 9 10 11 9 7 7 6 6 6 6 7 8 8 7 6 6 5 5 4 4 5 7 9 9 9
2 4 6 4 3 3 4 7 9 8 5 6 9 15 13 9 8 9 10 10 10 10 8 7 6 5 6 7 7 7 8 8 8 7 6 4 4 4 4 4 6 8 9 9
5 4 2 3 3 4 6 8 7 8 8 4 7 10 9 6 6 8 9 9 9 10 10 8 7 7 7 7 7 7 8 8 8 7 5 3 3 2 3 4 5 6 9 9
4 3 2 4 5 5 7 6 6 7 5 5 1 7 9 6 7 8 9 8 9 9 9 8 7 7 7 8 6 6 6 7 7 8 7 8 7 6 6 5 5 5 7 8
4 2 3 5 5 6 5 3 4 5 4 6 4 5 9 3 7 8 9 9 9 8 8 8 7 8 7 6 6 6 5 6 6 7 9 9 7 5 3 3 5 5 5 6
5 3 3 4 2 4 2 1 2 1 0 5 5 5 8 5 7 7 6 7 7 7 7 7 6 6 5 4 4 5 5 5 6 7 7 8 8 6 5 5 6 5 4 4
3 2 2 2 1 1 2 2 3 3 2 6 3 5 9 7 6 7 7 7 7 6 5 5 5 4 4 5 5 5 6 6 6 7 7 8 8 8 8 7 7 5 4 4
2 5 3 2 3 3 3 4 4 4 5 5 3 7 8 6 5 4 5 6 5 5 5 5 4 4 4 5 5 5 6 6 6 7 7 6 6 5 5 6 5 6 5 5
3 4 1 1 2 4 3 3 3 2 2 4 6 7 9 5 5 5 5 5 5 5 5 5 4 4 4 4 4 4 5 5 6 6 6 6 6 6 5 5 4 4 4 3
3 4 3 2 1 0 2 3 2 2 2 5 6 5 5 7 6 6 6 6 6 5 6 6 4 4 3 2 2 1 2 4 4 5 5 5 5 6 5 5 5 5 4 4
2 2 3 1 3 4 3 2 2 2 3 3 4 6 3 6 5 4 5 6 6 6 5 5 5 4 3 2 1 0 1 2 3 4 4 4 4 4 5 5 5 5 4 4
1 2 3 5 3 2 3 4 4 3 4 4 3 7 4 3 3 3 5 6 5 6 6 6 6 5 3 2 1 0 1 1 2 3 4 4 4 4 5 5 5 5 5 4
2 2 2 5 2 1 1 3 3 2 2 3 4 7 3 5 5 5 5 6 7 7 7 7 6 6 5 4 3 2 1 1 1 2 3 4 4 4 5 5 4 4 4 4
1 2 5 7 6 3 4 4 4 4 4 5 8 9 9 9 8 7 7 7 7 7 7 6 6 6 5 5 4 3 3 2 1 1 2 3 4 4 4 4 4 4 4 4
2 3 4 7 7 5 7 8 7 8 8 8 8 8 11 8 7 7 6 7 7 7 8 8 7 7 6 5 5 4 3 3 1 0 1 2 2 3 3 3 3 3 3 4
1 2 1 4 4 5 7 8 7 8 7 8 9 12 8 6 4 4 6 6 7 8 8 8 8 8 8 6 5 4 4 3 2 1 2 1 1 2 2 3 3 3 3 3
1 2 1 4 5 5 6 6 6 4 4 5 8 7 3 4 5 5 6 7 7 7 8 8 8 8 8 7 4 4 4 3 2 2 2 2 1 1 2 2 3 3 3 3
3 2 1 2 4 4 5 1 3 4 4 5 4 5 4 5 5 6 5 5 6 7 7 8 8 8 7 6 5 4 3 3 2 2 2 2 1 2 2 2 3 3 3 4
3 4 2 1 3 7 6 2 1 3 4 3 4 5 5 4 4 4 3 2 4 7 7 7 7 7 6 6 5 4 3 3 3 3 3 2 2 2 2 2 3 3 3 3
2 2 2 2 2 5 4 3 2 1 4 2 2 4 4 4 4 5 5 7 8 8 7 7 6 6 5 5 4 3 3 3 4 4 3 3 2 2 3 3 2 2 3 3
1 1 3 3 4 7 4 3 1 1 5 4 3 4 4 4 5 6 8 8 7 7 7 6 6 5 4 4 3 3 3 4 5 4 3 2 1 2 2 2 1 2 2 2
5 4 4 3 4 7 1 2 2 4 4 4 4 4 4 5 7 7 7 7 7 7 7 6 5 5 4 3 3 3 4 5 4 3 2 2 1 1 1 1 1 2 2 2
5 6 4 6 6 4 2 3 4 3 5 5 4 5 4 5 6 7 6 6 6 6 6 5 5 5 5 4 3 4 5 5 4 3 2 1 1 1 1 1 1 2 2 2
3 1 2 4 7 6 6 5 4 4 5 5 5 5 4 5 7 7 7 6 6 6 6 5 5 5 5 5 4 4 5 4 3 2 2 1 0 1 0 1 2 2 2 3
4 3 3 5 7 7 5 5 5 4 5 5 5 5 4 4 6 6 6 6 6 6 5 5 5 5 6 5 4 4 4 3 2 2 2 1 1 1 1 1 2 3 4 4
4 5 5 6 5 4 6 5 4 4 5 5 5 6 5 5 5 6 6 5 5 6 5 5 5 5 5 5 5 4 3 2 2 2 1 1 1 1 1 1 1 2 2 3
Wind_Direction
37 89 218 225 212 213 205 240 263 270 286 283 267 276 279 275 263 262 263 263 261 262 265 263 254 246 238 223 217 214 207 197 181 181 183 185 195 198 201 203 194 194 192 189
35 242 234 208 209 214 235 255 268 284 285 279 280 278 276 264 253 251 253 258 260 264 272 266 259 245 237 226 218 217 212 202 191 190 186 185 183 194 202 201 194 195 193 190
213 237 205 200 220 224 241 238 252 273 308 299 295 288 270 264 249 258 256 255 257 252 256 260 254 247 238 231 223 220 218 209 196 185 169 157 148 153 185 197 200 198 196 194
244 248 218 228 231 210 254 233 245 270 296 293 301 289 281 271 271 266 265 265 262 261 256 256 251 250 237 234 230 223 221 212 196 183 180 180 190 200 205 199 200 196 197 195
257 215 214 229 233 202 229 249 250 263 261 285 257 250 281 273 273 276 273 267 268 268 260 256 250 247 240 231 225 219 215 210 195 187 187 190 200 205 200 189 187 195 198 197
255 237 210 219 235 200 211 356 314 294 228 269 242 219 276 247 246 270 279 282 281 279 270 260 256 251 243 237 227 215 207 207 193 187 189 194 198 194 191 194 193 196 201 198
296 257 220 164 93 68 110 94 355 341 307 254 238 229 256 253 249 249 273 289 291 290 285 277 270 252 243 240 233 222 205 204 196 190 194 198 199 196 199 198 194 192 199 205
272 282 231 186 186 187 192 173 191 230 244 284 284 244 261 274 287 278 282 292 299 303 301 293 278 263 251 245 233 225 210 203 196 195 198 195 197 200 204 200 195 197 203 205
214 263 314 216 194 156 168 201 198 186 258 278 268 279 296 301 326 332 327 324 317 313 310 298 290 282 271 259 242 224 208 203 200 200 196 194 196 198 200 192 190 194 196 192
180 265 286 300 76 44 179 162 129 165 229 266 283 276 278 305 313 327 328 322 321 328 325 320 317 315 306 278 270 243 203 196 195 189 189 194 195 194 190 182 186 190 190 182
172 214 301 330 204 206 173 174 182 188 195 210 274 276 269 285 296 312 316 324 333 335 326 324 330 331 319 321 332 237 204 185 186 184 182 186 193 190 186 188 193 191 190 185
170 161 261 257 248 212 199 201 183 203 239 213 235 274 306 301 325 345 331 331 344 342 340 338 341 346 345 337 342 350 242 209 202 192 182 187 190 188 191 194 197 190 192 190
157 154 320 330 340 5 231 219 205 193 200 216 233 269 335 353 351 348 342 338 343 343 347 348 353 355 354 352 355 356 327 256 214 190 187 190 191 193 201 200 196 192 190 191
147 181 206 229 249 247 254 246 217 199 224 242 241 266 300 318 327 334 339 336 337 339 344 349 351 351 351 351 351 348 345 334 293 206 197 200 201 202 206 201 194 191 190 195
113 225 241 260 272 262 250 255 233 222 227 234 257 263 282 294 306 316 326 333 338 341 344 345 343 343 346 346 345 343 343 343 333 297 239 230 219 206 195 188 190 188 191 203
92 215 281 287 277 265 267 263 246 242 241 245 266 277 280 293 312 324 326 331 332 331 333 334 337 339 338 333 330 335 337 338 340 325 290 268 227 207 195 188 183 175 185 183
168 161 286 280 311 323 282 250 216 216 223 219 244 261 294 311 315 313 317 321 321 321 326 328 330 326 322 321 316 321 325 336 345 319 298 287 260 217 205 192 180 182 183 179
168 159 185 292 357 264 254 237 205 217 256 235 252 283 292 284 294 299 301 306 318 324 324 323 322 320 319 317 323 323 327 339 340 324 309 297 266 236 217 196 196 195 190 187
185 162 163 191 276 281 297 302 216 219 285 252 243 284 305 313 323 316 315 321 313 313 311 310 309 308 314 321 326 333 322 328 330 314 298 285 263 240 225 214 204 197 190 197
85 124 147 167 229 256 280 327 322 89 294 291 252 282 307 342 326 298 319 323 318 315 317 318 319 321 323 323 331 341 332 328 316 301 293 283 259 230 229 223 215 204 197 203
128 144 185 204 237 266 277 305 26 113 279 308 288 285 290 282 268 284 304 313 316 317 320 326 329 328 319 322 332 334 332 316 302 296 289 289 272 241 227 213 203 189 188 178
191 187 201 182 222 261 292 100 182 252 302 300 290 285 279 282 292 300 308 317 325 329 333 335 339 334 331 334 338 333 318 306 307 306 300 298 290 264 230 173 182 175 173 175
208 202 200 203 226 272 242 238 266 288 292 289 286 290 287 291 297 305 311 316 321 325 330 330 331 330 333 337 340 323 314 320 327 332 324 310 306 281 211 173 178 177 179 186
256 208 211 266 272 274 276 278 292 292 282 288 289 291 288 286 295 303 309 316 321 323 326 329 332 331 327 330 334 318 316 321 328 329 322 319 318 296 240 197 197 193 197 199
239 182 219 263 282 304 289 268 278 291 298 305 311 304 295 296 298 298 306 312 316 320 324 329 327 321 319 322 326 323 323 326 328 328 328 327 308 264 266 254 229 222 221 217
207 191 195 238 254 251 280 296 289 293 298 301 311 313 311 300 294 300 302 305 311 316 322 326 327 324 321 325 325 327 329 329 323 330 327 309 296 277 249 255 298 291 249 241
Height
1475 1479 1481 1480 1480 1479 1481 1483 1482 1477 1474 1474 1471 1465 1458 1456 1456 1455 1454 1453 1452 1452 1453 1454 1454 1455 1456 1457 1458 1460 1461 1463 1465 1468 1470 1473 1476 1479 1482 1485 1487 1490 1492 1494
1479 1480 1477 1478 1479 1479 1481 1482 1480 1476 1472 1472 1468 1462 1454 1452 1451 1450 1449 1448 1448 1448 1447 1448 1449 1449 1450 1452 1453 1455 1456 1458 1460 1463 1466 1469 1472 1475 1478 1481 1483 1485 1487 1490
1477 1476 1474 1476 1478 1478 1479 1480 1478 1476 1472 1470 1470 1460 1451 1447 1446 1445 1444 1443 1443 1443 1442 1443 1443 1444 1446 1447 1448 1449 1451 1453 1455 1458 1462 1465 1468 1470 1473 1475 1478 1480 1483 1485
1476 1473 1474 1474 1475 1476 1476 1474 1474 1473 1476 1476 1474 1468 1450 1447 1444 1441 1440 1439 1438 1438 1438 1439 1439 1439 1440 1442 1443 1445 1446 1447 1450 1453 1456 1459 1461 1463 1466 1470 1473 1475 1478 1480
1473 1472 1473 1473 1472 1473 1472 1471 1472 1473 1475 1477 1474 1473 1452 1446 1443 1438 1436 1434 1434 1434 1434 1434 1434 1435 1436 1437 1439 1440 1441 1443 1445 1448 1451 1454 1457 1459 1463 1466 1468 1470 1473 1475
1472 1470 1470 1469 1469 1470 1471 1472 1473 1474 1476 1476 1470 1471 1454 1446 1439 1435 1433 1432 1430 1430 1430 1430 1431 1431 1432 1433 1434 1435 1437 1438 1441 1444 1446 1449 1452 1455 1458 1460 1463 1466 1468 1470
1472 1470 1468 1468 1470 1470 1471 1476 1479 1479 1482 1473 1466 1465 1449 1437 1434 1432 1431 1430 1428 1427 1426 1426 1426 1427 1428 1429 1430 1431 1432 1434 1436 1439 1442 1445 1447 1450 1453 1456 1458 1461 1463 1465
1475 1473 1468 1468 1468 1471 1472 1473 1478 1478 1479 1473 1467 1461 1443 1434 1431 1430 1429 1428 1426 1425 1424 1423 1423 1424 1424 1425 1425 1426 1427 1429 1432 1435 1438 1440 1443 1446 1449 1452 1454 1456 1458 1461
1476 1472 1468 1467 1467 1468 1471 1473 1473 1478 1480 1478 1466 1456 1442 1433 1431 1429 1428 1427 1426 1424 1423 1422 1421 1421 1421 1422 1422 1422 1424 1426 1429 1431 1434 1437 1440 1442 1445 1447 1450 1452 1454 1456
1474 1475 1469 1468 1467 1468 1470 1471 1475 1476 1476 1470 1462 1456 1446 1436 1433 1430 1429 1428 1425 1423 1422 1421 1420 1419 1419 1420 1420 1421 1422 1423 1425 1428 1431 1434 1436 1439 1441 1443 1445 1448 1450 1452
1473 1476 1473 1470 1470 1469 1471 1472 1472 1474 1474 1472 1465 1450 1439 1437 1433 1431 1429 1428 1425 1423 1422 1420 1418 1418 1418 1418 1418 1419 1420 1421 1423 1425 1428 1430 1433 1435 1437 1439 1441 1444 1446 1448
1473 1477 1476 1472 1467 1466 1467 1468 1470 1470 1471 1472 1469 1453 1437 1436 1433 1432 1430 1428 1426 1424 1422 1419 1417 1416 1416 1416 1417 1417 1418 1419 1421 1423 1425 1427 1429 1431 1433 1435 1438 1440 1441 1443
1473 1476 1475 1469 1471 1470 1469 1468 1468 1469 1470 1470 1465 1449 1437 1436 1434 1433 1431 1428 1426 1424 1421 1419 1417 1416 1415 1415 1415 1416 1416 1418 1419 1421 1422 1424 1426 1428 1430 1432 1433 1435 1437 1439
1469 1474 1474 1469 1465 1466 1467 1466 1467 1467 1467 1464 1458 1446 1439 1437 1435 1434 1432 1429 1427 1425 1423 1421 1418 1417 1415 1415 1414 1415 1415 1416 1417 1418 1419 1420 1422 1424 1426 1428 1430 1431 1433 1434
1470 1473 1473 1469 1465 1465 1463 1461 1462 1463 1459 1457 1448 1446 1439 1438 1436 1435 1432 1430 1427 1425 1423 1421 1418 1416 1416 1415 1414 1414 1414 1414 1414 1415 1416 1417 1419 1420 1422 1424 1425 1427 1429 1430
1471 1473 1472 1468 1463 1463 1460 1456 1456 1456 1454 1453 1449 1444 1438 1437 1436 1434 1432 1430 1427 1425 1423 1421 1418 1416 1415 1414 1413 1412 1412 1412 1412 1412 1413 1414 1415 1417 1418 1420 1421 1423 1425 1426
1472 1473 1472 1468 1465 1459 1456 1451 1450 1450 1448 1448 1445 1441 1438 1437 1435 1434 1431 1429 1427 1425 1423 1421 1418 1416 1414 1412 1411 1409 1409 1410 1410 1410 1411 1411 1412 1413 1415 1416 1418 1419 1421 1422
1471 1472 1474 1473 1468 1461 1448 1446 1445 1446 1444 1444 1441 1439 1438 1437 1435 1433 1431 1429 1426 1425 1423 1420 1418 1415 1413 1411 1408 1407 1407 1407 1407 1407 1408 1409 1410 1411 1412 1413 1414 1416 1417 1419
1468 1471 1474 1475 1471 1460 1447 1445 1445 1445 1443 1440 1440 1439 1437 1435 1433 1430 1429 1428 1426 1424 1422 1419 1416 1413 1411 1409 1407 1405 1405 1405 1405 1405 1406 1407 1407 1408 1409 1410 1411 1413 1414 1415
1469 1470 1474 1475 1468 1458 1446 1445 1443 1445 1443 1438 1438 1438 1437 1435 1435 1431 1428 1426 1424 1422 1419 1416 1413 1411 1409 1407 1406 1404 1403 1403 1403 1403 1404 1404 1405 1405 1406 1407 1408 1409 1411 1412
1471 1472 1473 1472 1468 1455 1447 1445 1444 1447 1442 1438 1437 1436 1436 1435 1434 1430 1426 1424 1422 1419 1417 1414 1411 1408 1407 1406 1405 1403 1402 1401 1401 1401 1402 1402 1402 1403 1404 1404 1405 1406 1407 1409
1467 1469 1470 1470 1466 1455 1445 1444 1446 1443 1439 1437 1435 1434 1433 1431 1429 1426 1424 1422 1419 1417 1414 1411 1409 1406 1405 1404 1403 1401 1400 1400 1400 1399 1399 1399 1399 1400 1400 1401 1402 1403 1405 1406
1463 1461 1460 1459 1453 1446 1443 1442 1441 1440 1438 1435 1434 1432 1431 1428 1426 1424 1421 1419 1417 1415 1412 1410 1407 1405 1403 1402 1401 1399 1398 1398 1397 1397 1396 1396 1397 1397 1398 1398 1399 1400 1402 1402
1459 1457 1457 1455 1446 1443 1441 1440 1438 1437 1436 1434 1432 1430 1428 1426 1424 1422 1419 1417 1415 1413 1411 1409 1406 1403 1401 1400 1399 1398 1397 1396 1395 1395 1395 1395 1395 1395 1396 1396 1397 1398 1398 1399
1454 1455 1455 1453 1445 1440 1437 1437 1436 1435 1433 1431 1430 1428 1426 1424 1422 1420 1418 1415 1413 1411 1409 1407 1404 1402 1400 1399 1398 1397 1396 1395 1394 1393 1393 1393 1393 1393 1394 1394 1395 1395 1396 1396
1449 1450 1451 1446 1441 1441 1437 1435 1434 1433 1431 1429 1427 1425 1424 1422 1420 1418 1416 1414 1412 1410 1407 1405 1403 1401 1399 1398 1396 1395 1395 1394 1393 1392 1392 1392 1392 1392 1392 1392 1393 1393 1394 1395